Regional Weather Roundup
Issued by NWS

Home | Current Version | Previous Version | Graphics & Text | Print | Product List | Glossary Off
Versions: 1 2 3 4 5 6 7 8 9 10 11 12 13 14 15 16 17 18 19 20 21 22 23 24 25 26 27 28 29 30 31 32 33 34 35 36 37 38 39 40 41 42 43 44 45 46 47 48 49 50

000
ASUS43 KMKX 301859
RWRWI

WISCONSIN REGIONAL WEATHER ROUNDUP
NATIONAL WEATHER SERVICE MILWAUKEE/SULLIVAN WI
200 PM CDT MON MAR 30 2015

NOTE: "FAIR" INDICATES FEW OR NO CLOUDS BELOW 12,000 FEET WITH NO
SIGNIFICANT WEATHER AND/OR OBSTRUCTIONS TO VISIBILITY.

WIZ001-002-006>008-014>016-023>028-302000-
NORTHWEST WISCONSIN

CITY           SKY/WX    TMP DP  RH WIND       PRES   REMARKS
SUPERIOR ARPT  CLOUDY    50  26  39 SW7       29.88F
ASHLAND        CLOUDY    53  22  29 W8        29.88F
HAYWARD        CLOUDY    47  23  38 SW6       29.89F
SIREN          CLOUDY    43  35  73 E6        29.91F
CUMBERLAND     LGT RAIN  41  34  75 E6        29.92F
RICE LAKE      LGT RAIN  42  34  73 CALM      29.94F
CHETEK         LGT RAIN  42  37  83 CALM      29.93F
LADYSMITH      CLOUDY    49  31  50 SW9       29.93S
EAU CLAIRE     NOT AVBL
MENOMONIE      CLOUDY    47  35  64 E5        29.94F
NEW RICHMOND   LGT RAIN  44  36  72 E6        29.92F
OSCEOLA        CLOUDY    46  38  74 E8        29.93F
$$

WIZ003>005-009-010-017-018-302000-
NORTH CENTRAL WISCONSIN

CITY           SKY/WX    TMP DP  RH WIND       PRES   REMARKS
MANITOWISH WTR MOSUNNY   47  25  42 N12G21    29.88F
ARBOR VITAE    MOSUNNY   49  22  33 NW9G21    29.89F
WOODRUFF       MOSUNNY   49  22  33 NW9G21    29.89F
RHINELANDER    MOSUNNY   49  20  31 NW12G17   29.89F
EAGLE RIVER    SUNNY     48  17  29 NW17G25   29.88F
LAND O LAKES   SUNNY     48  19  30 NW15      29.88F
PHILLIPS       CLOUDY    50  22  34 W8        29.90F
TOMAHAWK       PTSUNNY   50  20  31 W13G23    29.91S
MEDFORD        CLOUDY    48  29  48 W12       29.92F
MERRILL        PTSUNNY   51  24  34 NW10G21   29.91S
$$

WIZ029-030-035-036-043>047-302000-
CENTRAL WISCONSIN

CITY           SKY/WX    TMP DP  RH WIND       PRES   REMARKS
WAUSAU         PTSUNNY   52  24  33 W12       29.90F
MOSINEE        SUNNY     52  27  37 W10G18    29.93F
MARSHFIELD     CLOUDY    50  30  46 W13G18    29.93F
STEVENS POINT  CLOUDY    49  27  42 W12G18    29.94F
WAUPACA        PTSUNNY   57  22  26 W12G22    29.94S
WAUTOMA        NOT AVBL
WISC RAPIDS    CLOUDY    52  27  38 NW8G21    29.95F
CAMP DOUGLAS   SUNNY     52  37  58 NW10      29.95F
$$

WIZ011>013-019>022-031-037>040-048>050-302000-
NORTHEAST WISCONSIN

CITY           SKY/WX    TMP DP  RH WIND       PRES   REMARKS
ANTIGO         MOSUNNY   49  26  40 NW13      29.90F
SHAWANO        SUNNY     56  23  28 W12G22    29.92S
OCONTO         SUNNY     53  22  29 NW10G20   29.90S
STURGEON BAY   SUNNY     46  27  46 N5        29.94F
GREEN BAY      SUNNY     55  30  38 W20G29    29.92F
MANITOWOC      NOT AVBL
APPLETON       PTSUNNY   54  23  30 W15G23    29.93F
CLINTONVILLE   MOSUNNY   54  21  28 NW10      29.92S
OSHKOSH        CLOUDY    55  29  36 NW12G22   29.94S
$$

WIZ032>034-041-042-053>061-302000-
SOUTHWEST WISCONSIN

CITY           SKY/WX    TMP DP  RH WIND       PRES   REMARKS
LA CROSSE      CLOUDY    53  27  36 CALM      29.94F
SPARTA         CLOUDY    53  28  38 CALM      29.96F
VIROQUA        CLOUDY    51  29  42 CALM      29.95F
BOSCOBEL       CLOUDY    59  29  31 N3        29.95F
PRAIRIE DU CHI CLOUDY    60  27  28 W3        29.94F
PLATTEVILLE    PTSUNNY   62  32  32 W18       29.96F
$$

WIZ056-057-062-063-064-067-068-302000-
SOUTH CENTRAL WISCONSIN

CITY           SKY/WX    TMP DP  RH WIND       PRES   REMARKS
REEDSBURG      CLOUDY    54  31  42 NW10G16   29.96F
BARABOO/DELLS  CLOUDY    53  28  38 NW8G18    29.96F
LONE ROCK      NOT AVBL
MINERAL POINT  PTSUNNY   54  30  40 N8        29.97F
MADISON        CLOUDY    55  28  35 NW6       29.97R
MIDDLETON      CLOUDY    56  25  29 W12       29.98R
WATERTOWN      CLOUDY    56  30  37 W12       29.94F
MONROE         PTSUNNY   59  32  36 W15G21    29.96F
JANESVILLE     PTSUNNY   59  27  29 NW17      29.96F
$$

WIZ051-052-058>065-066-070>072-302000-
SOUTHEAST WISCONSIN

CITY           SKY/WX    TMP DP  RH WIND       PRES   REMARKS
MILWAUKEE      PTSUNNY   58  25  28 W16       29.96F
WAUKESHA       NOT AVBL
MILWAUKEE/TIMM MOSUNNY   57  23  26 W20G25    29.96F
RACINE         MOSUNNY   58  27  30 W14G24    29.97F
BURLINGTON     PTSUNNY   55  28  35 W13G20    29.97S
KENOSHA        MOSUNNY   56  32  40 SW16      29.96F
FOND DU LAC    CLOUDY    56  29  35 W14G22    29.94S
SHEBOYGAN      MOSUNNY   53  28  38 W12G21    29.94F
WEST BEND      PTSUNNY   54  28  37 W10G17    29.95S
JUNEAU         CLOUDY    55  30  39 W10       29.96F
$$

LSZ147-162-302000-
LAKE SUPERIOR

STATION/POSITION TIME  TEMP    WIND        PRES    WAVE
                       AIR SEA DIR/SP/G            HT/PER
                 (UTC) (F)     (DEG/KT/KT) (MB)    (FT/S)
DEVILS ISLAND    1800   41     220/  8/ 11 1013.2F
PORT WING        1800   44     300/  6/  7 1012.9F
SAXON HARBOR     1840   45      70/  7/  7 1012.2F
$$

LMZ867-665-643>646-302000-
LAKE MICHIGAN

STATION/POSITION TIME  TEMP    WIND        PRES    WAVE
                       AIR SEA DIR/SP/G            HT/PER
                 (UTC) (F)     (DEG/KT/KT) (MB)    (FT/S)
NORTHPORT PIER   1800   41     330/  1/  2 1013.5R
KEWAUNEE LAKESHO 1800   51     310/ 12/ 16 1012.5R
SHEBOYGAN LAKESH 1800   51     270/ 14/ 18 1014.7R
PORT WASHINGTON  1800   56     290/  9/ 16 1014.9F
MILWAUKEE LAKESH 1800   54     270/ 13/ 20   N/A
KENOSHA   LAKESH 1700   53     280/ 15/ 21 1015.6F
$$

TC  - TEMPERATURE IN CELSIUS
VSB - VISIBILITY IN STATUTE MILES
WCI - WIND CHILL INDEX
HX  - HEAT INDEX




USA.gov is the U.S. government's official web portal to all federal, state and local government web resources and services.